Regional Weather Roundup
Issued by NWS

Home | Current Version | Previous Version | Graphics & Text | Print | Product List | Glossary On
Versions: 1 2 3 4 5 6 7 8 9 10 11 12 13 14 15 16 17 18 19 20 21 22 23 24 25 26 27
000
ASUS45 KBOU 211207
RWRCO

WEATHER ROUNDUP FOR COLORADO
NATIONAL WEATHER SERVICE DENVER/BOULDER CO
600 AM MDT FRI JUL 21 2017

NOTE: "FAIR" INDICATES FEW OR NO CLOUDS BELOW 12000 FEET WITH NO
SIGNIFICANT WEATHER AND/OR OBSTRUCTIONS TO VISIBILITY.

COZ001>005-013-030-031-211300-
...NORTHWEST COLORADO...

CITY           SKY/WX    TMP DP  RH WIND       PRES   REMARKS
CRAIG          FAIR      60  50  69 CALM      30.22F
HAYDEN         FAIR      61  45  55 E7        30.25F
MEEKER         FAIR      60  54  80 E8        30.25S
RABBIT EARS PA FAIR      50  45  81 NW6       30.53S
STEAMBOAT SPGS FAIR      57  48  70 E6        30.27F
WALDEN         FAIR      50  45  81 SE7       30.36F
$$

COZ006>008-011-211300-
...WEST CENTRAL VALLEYS...

CITY           SKY/WX    TMP DP  RH WIND       PRES   REMARKS
GRAND JUNCTION FAIR      73  55  53 SE8       30.14R
MONTROSE       FAIR      64  49  57 SE9       30.22S
EAGLE          CLOUDY    56  49  77 W5        30.33R
RIFLE          CLOUDY    65  57  75 E5        30.21R
DELTA          FAIR      67  51  55 NE3       30.19R
NUCLA          FAIR      63  48  59 SE8       30.25S
$$

COZ017>023-064>068-211300-
...SOUTHWEST COLORADO...

CITY           SKY/WX    TMP DP  RH WIND       PRES   REMARKS
DURANGO        FAIR      56  51  84 CALM      30.28R
CORTEZ         FAIR      57  56  96 SE3       30.21S
PAGOSA SPRINGS MOCLDY    53  50  90 CALM      30.36S
TELLURIDE      FAIR      51  48  90 SE7       30.47S
WOLF CREEK PAS FAIR      43  43 100 SW5       30.70R
$$

COZ009-010-012-014-032>034-037-058>063-211300-
...CENTRAL COLORADO...

CITY           SKY/WX    TMP DP  RH WIND       PRES   REMARKS
ASPEN          MOCLDY    53  48  83 SW7       30.35R
BUENA VISTA    FAIR      55  46  71 CALM      30.37R
COPPER MTN     FAIR      54  41  62 NW10      30.66S
BERTHOUD PASS  FAIR      41  28  60 NW8G20    30.68S
COTTONWOOD PAS FAIR      59  41  51 S3        30.50R
GUNNISON       FAIR      50  47  89 CALM      30.39R
KREMMLING      FAIR      55  52  88 CALM      30.37R
LEADVILLE      FAIR      44  41  89 N3        30.49R
MONARCH PASS   FAIR      46  41  81 SW13      30.75R
SALIDA         FAIR      55  49  79 W7        30.42R
SUNLIGHT       CLOUDY    52  41  66 W6        30.60R
WILKERSON PASS FAIR      54  36  50 NW7       30.62S
$$

COZ069>075-211300-
...SAN LUIS VALLEY/SANGRE DE CRISTO MOUNTAINS...

CITY           SKY/WX    TMP DP  RH WIND       PRES   REMARKS
ALAMOSA        FAIR      53  50  89 SE5       30.33R
DEL NORTE      FAIR      56  46  68 W10       30.38R
LA VETA PASS   NOT AVBL
SAGUACHE         N/A    N/A N/A N/A MISG        N/A
$$

COZ035-036-038>040-211300-
...NORTHERN COLORADO FRONT RANGE...

CITY           SKY/WX    TMP DP  RH WIND       PRES   REMARKS
DENVER INTL AP FAIR      62  50  64 S5        30.14R
DMNS CITY PARK   N/A     65  54  68 E7        30.14S
AURORA         PTCLDY    61  54  79 W5        30.17R
FRONT RANGE AP FAIR      63  52  67 S3        30.15S
ERIE MUNI ARPT FAIR      62  52  70 SW3       30.13R
BOULDER MUN AP FAIR      66  50  55 S5        30.14R
CENTENNIAL     FAIR      65  52  62 W6        30.17R
BROOMFIELD     FAIR      63  52  67 SW3       30.16S
FORT COLLINS   FAIR      62  54  74 S9        30.11R
LONGMONT       FAIR      65  53  65 CALM      30.13S
$$

COZ041-046-047-076>085-087-088-211300-
...PIKES PEAK/PALMER DIVIDE AND SOUTHERN FOOTHILLS...

CITY           SKY/WX    TMP DP  RH WIND       PRES   REMARKS
COLO. SPRINGS  FAIR      66  52  60 NW8       30.17S
A. F. ACADEMY  FAIR      61  48  62 N8        30.20R
SCHRIEVER AFB  FAIR      70  47  44 NW3       30.17S
CHEYENNE MTN   FAIR      73  43  34 SE3       30.18R
ELLICOTT       FAIR     N/A N/A N/A CALM      30.15S
FALCON           N/A     63  48  57 W10       30.24R
FORT CARSON    FAIR      66  50  57 NW10      30.13S
LIMON          FAIR      63  55  75 NW8       30.12R
MONUMENT HILL  FAIR      59  46  63 N7        30.28R
CANON CITY     CLEAR     70  54  56 W18       30.12S
WALSENBURG     FAIR      70  48  46 SW12      30.17S
TRINIDAD       FAIR      63  48  58 W9        30.15S
$$

COZ042>045-048>051-090-091-211300-
...NORTHEAST COLORADO...

CITY           SKY/WX    TMP DP  RH WIND       PRES   REMARKS
GREELEY ARPT   FAIR      63  56  78 SW7       30.08R
AKRON          FAIR      66  55  67 NW13      30.05R
BURLINGTON     FAIR      63  59  87 W7        30.01R
WRAY           NOT AVBL
YUMA           FAIR      64  50  59 W8        30.00S
STERLING       FAIR      63  59  88 CALM      30.00R
HOLYOKE        FAIR      72  61  68 W7        29.96S
FORT MORGAN    FAIR      64  52  64 CALM      30.06S
$$

COZ086-089-092>099-211300-
...SOUTHEAST COLORADO...

CITY           SKY/WX    TMP DP  RH WIND       PRES   REMARKS
PUEBLO         FAIR      67  51  56 W8        30.05S
LA JUNTA       FAIR      67  54  63 W10       30.02R
LAMAR          FAIR      62  55  77 VRB5      29.97R
SPRINGFIELD      N/A     64  54  69 W3        30.05R
$$




USA.gov is the U.S. government's official web portal to all federal, state and local government web resources and services.